Overview Statistics Trail Chart Weather Telemetry Raw packets
 

This is the latest recevied weather packets stored in our database for station/object OM8AGG-15. If no packets are shown the sender has not sent any weather packets the latest 10 day(s).

<< 36 37 38 39 40 >>
Time Temp. Humidity Pressure Rain* Wind** Luminosity Snow
1787778229 17.78° C - - - - - -
1787778226 17.78° C 80% 1019.7 hPa - - - -
1787777326 18.33° C 80% 1019.5 hPa - - - -
1787776428 18.33° C 80% 1019.7 hPa - - - -
1787775526 18.33° C 80% 1019.7 hPa - - - -
1787774625 18.33° C 80% 1019.3 hPa - - - -
1787773725 18.33° C 80% 1019.6 hPa - - - -
1787772825 18.33° C 80% 1019.5 hPa - - - -
1787771925 18.89° C 80% 1019.4 hPa - - - -
1787771025 18.89° C 80% 1019.4 hPa - - - -
1787770125 18.89° C 80% 1019.2 hPa - - - -
1787769224 18.89° C 80% 1019.3 hPa - - - -
1787768324 19.44° C 80% 1019.2 hPa - - - -
1787767424 19.44° C 80% 1019.1 hPa - - - -
1787766524 20° C 80% 1018.9 hPa - - - -
1787765624 20° C 80% 1018.9 hPa - - - -
1787764724 20.56° C 80% 1018.8 hPa - - - -
1787763824 21.11° C 80% 1018.8 hPa - - - -
1787762923 21.11° C 80% 1018.7 hPa - - - -
1787762023 22.22° C 80% 1018.7 hPa - - - -
1787761122 22.22° C 80% 1018.4 hPa - - - -
1787760222 22.22° C 80% 1018.6 hPa - - - -
1787759322 22.22° C 80% 1018.4 hPa - - - -
1787758422 22.22° C 80% 1018.3 hPa - - - -
1787757522 22.78° C 80% 1018.4 hPa - - - -

* Rain since midnight (hover to see other rain measurements)
** Current wind speed in m/s (hover to see current wind gust speed)